Amateur Radio Satellites - All Passes

Search period start: 25 May 2013 10:08
Search period end: 26 May 2013 10:08
Location: Smoky Mountain Stargaze, 35.4252°N, 83.3329°W

Satellite Date Start Highest point End Downlink Frequencies (MHz)
Time Altitude Azimuth
JAS-2 25 May 10:22:13 10:27:27 25° 92° (E) 10:32:11 435.800 - 435.900 CW/SSB, 435.910 FM
KITSAT 1 25 May 10:23:06 10:29:24 26° 256° (WSW) 10:35:42 435.175 FM
PANSAT 25 May 10:28:28 10:30:50 15° 162° (SSE) 10:33:11 not established
JAS-1B 25 May 10:43:41 10:47:56 21° 296° (WNW) 10:52:03 435.800 - 435.900 CW/SSB
UOSAT-12 25 May 10:45:06 10:48:53 27° 112° (ESE) 10:52:42 437.025 FM, 437.400 FM
Oscar 11 25 May 11:09:50 11:14:08 55° 100° (E) 11:18:25 145.825 FM, Beacon 2401.500 USB
OPAL 25 May 11:33:09 11:37:45 37° 100° (E) 11:42:18 ?
HO-68 25 May 11:40:19 11:47:20 61° 290° (WNW) 11:54:21 435.675 MHz FM
JAS-2 25 May 12:06:31 12:12:44 43° 291° (WNW) 12:18:15 435.800 - 435.900 CW/SSB, 435.910 FM
PANSAT 25 May 12:07:20 12:10:41 27° 174° (S) 12:14:02 not established
UOSAT-12 25 May 12:25:05 12:28:57 28° 307° (NW) 12:32:52 437.025 FM, 437.400 FM
MaSat-1 25 May 12:33:48 12:36:12 23° 254° (WSW) 12:38:21 437.345 MHz
Oscar 11 25 May 12:48:20 12:49:51 12° 295° (WNW) 12:51:22 145.825 FM, Beacon 2401.500 USB
OPAL 25 May 13:12:38 13:16:23 22° 295° (WNW) 13:20:07 ?
Oscar 16 25 May 13:18:03 13:21:01 16° 64° (ENE) 13:24:00 437.025 USB, Beacon 2401.1428
AO-27 25 May 13:33:40 13:36:43 16° 64° (ENE) 13:39:46 436.795 MHz FM
ITAMSAT 1 25 May 13:39:14 13:42:35 18° 65° (ENE) 13:45:56 435.822 SSB
PANSAT 25 May 13:47:20 13:50:38 26° 187° (S) 13:53:55 not established
Oscar 19 25 May 14:15:00 14:19:58 48° 72° (ENE) 14:24:57 437.125 CW, 437.150 USB
Uribyol 2 25 May 14:17:44 14:22:37 44° 72° (ENE) 14:27:32 436.500 FM
Saudisat 1A 25 May 14:29:06 14:33:22 38° 55° (NE) 14:37:31 436.775 MHz
Oscar 16 25 May 14:54:46 14:59:52 58° 259° (W) 15:05:00 437.025 USB, Beacon 2401.1428
AO-27 25 May 15:10:40 15:15:44 56° 259° (W) 15:20:50 436.795 MHz FM
ITAMSAT 1 25 May 15:16:40 15:21:39 50° 260° (W) 15:26:41 435.822 SSB
PCSat 25 May 15:23:53 15:25:29 11° 45° (NE) 15:27:05 145.825 MHz
PANSAT 25 May 15:28:30 15:30:27 13° 199° (SSW) 15:32:24 not established
TMSAT-1 25 May 15:30:13 15:33:22 16° 64° (ENE) 15:36:30 436.925 FM
Uosat F 25 May 15:30:50 15:35:07 30° 69° (ENE) 15:39:25 435.120 FM
AO-Echo 25 May 15:34:54 15:39:45 81° 76° (ENE) 15:44:31 ?
RS-15 25 May 15:41:54 15:52:51 42° 107° (ESE) 16:03:25 29.354 - 29.394 USB, Beacon 29.352 USB
Gurwin Techsat 1B 25 May 15:51:45 15:56:40 40° 71° (ENE) 16:01:35 435.225 FM
Sapphire 25 May 15:55:14 15:59:07 20° 51° (NE) 16:02:59 437.095 MHz 1200 baud AX-25 AFSK
Oscar 19 25 May 15:56:08 15:59:31 17° 267° (W) 16:02:55 437.125 CW, 437.150 USB
Uribyol 2 25 May 15:58:42 16:02:16 19° 266° (W) 16:05:52 436.500 FM
AO-7 25 May 16:02:49 16:08:34 21° 56° (NE) 16:14:19 29.400 - 29.500 MHz
Saudisat 1A 25 May 16:09:38 16:12:44 19° 251° (WSW) 16:15:47 436.775 MHz
SO-50 25 May 16:35:31 16:37:43 13° 45° (NE) 16:39:53 436.795 FM
PCSat 25 May 17:04:21 17:09:48 78° 63° (ENE) 17:15:12 145.825 MHz
TMSAT-1 25 May 17:07:36 17:12:47 57° 259° (W) 17:18:00 436.925 FM
Uosat F 25 May 17:09:42 17:13:51 26° 264° (W) 17:18:03 435.120 FM
Gurwin Techsat 1B 25 May 17:32:44 17:36:44 22° 266° (W) 17:40:45 435.225 FM
Sapphire 25 May 17:37:36 17:42:54 55° 248° (WSW) 17:48:10 437.095 MHz 1200 baud AX-25 AFSK
AO-7 25 May 17:52:07 18:00:24 80° 254° (WSW) 18:08:46 29.400 - 29.500 MHz
RS-15 25 May 17:53:13 18:04:57 55° 306° (NW) 18:16:15 29.354 - 29.394 USB, Beacon 29.352 USB
SO-50 25 May 18:14:19 18:18:49 69° 243° (WSW) 18:23:14 436.795 FM
PCSat 25 May 18:51:00 18:52:28 11° 258° (WSW) 18:53:56 145.825 MHz
STRAND 1 25 May 18:52:26 18:55:42 17° 94° (E) 18:58:58 ?
UOSAT-12 25 May 19:18:37 19:20:43 13° 45° (NE) 19:22:50 437.025 FM, 437.400 FM
JAS-1B 25 May 19:31:38 19:39:41 37° 68° (ENE) 19:46:41 435.800 - 435.900 CW/SSB
AO-7 25 May 19:51:17 19:54:15 12° 270° (W) 19:57:13 29.400 - 29.500 MHz
Hamsat 25 May 19:55:46 19:59:59 90° 262° (W) 20:04:15 145.90 MHz
RS-15 25 May 20:13:33 20:20:47 18° 335° (NNW) 20:27:52 29.354 - 29.394 USB, Beacon 29.352 USB
SO-67 25 May 20:14:47 20:18:09 42° 75° (ENE) 20:21:32 435.3500 MHz FM
HO-68 25 May 20:22:44 20:25:26 13° 55° (NE) 20:28:08 435.675 MHz FM
STRAND 1 25 May 20:30:10 20:35:07 48° 288° (WNW) 20:40:03 ?
JAS-2 25 May 20:33:48 20:35:59 11° 55° (NE) 20:38:10 435.800 - 435.900 CW/SSB, 435.910 FM
UOSAT-12 25 May 20:56:49 21:01:25 75° 242° (WSW) 21:06:00 437.025 FM, 437.400 FM
JAS-1B 25 May 21:21:11 21:30:00 47° 260° (W) 21:37:39 435.800 - 435.900 CW/SSB
Oscar 11 25 May 22:02:34 22:06:19 30° 71° (ENE) 22:10:05 145.825 FM, Beacon 2401.500 USB
HO-68 25 May 22:04:50 22:11:56 76° 72° (ENE) 22:19:04 435.675 MHz FM
JAS-2 25 May 22:11:54 22:19:31 63° 72° (ENE) 22:27:13 435.800 - 435.900 CW/SSB, 435.910 FM
RS-15 25 May 22:35:03 22:40:13 14° 13° (NNE) 22:45:16 29.354 - 29.394 USB, Beacon 29.352 USB
OPAL 25 May 22:44:57 22:49:56 49° 71° (ENE) 22:54:53 ?
KITSAT 1 25 May 22:50:56 22:58:51 66° 113° (ESE) 23:06:51 435.175 FM
Oscar 11 25 May 23:39:26 23:42:33 19° 265° (W) 23:45:41 145.825 FM, Beacon 2401.500 USB
HO-68 25 May 23:55:59 00:00:12 17° 268° (W) 00:04:27 435.675 MHz FM
JAS-2 25 May 23:58:47 00:04:50 25° 268° (W) 00:11:00 435.800 - 435.900 CW/SSB, 435.910 FM
OPAL 26 May 00:25:41 00:29:01 17° 264° (W) 00:32:21 ?
RS-15 26 May 00:47:10 00:57:18 38° 46° (NE) 01:07:09 29.354 - 29.394 USB, Beacon 29.352 USB
KITSAT 1 26 May 00:48:08 00:54:48 28° 312° (NW) 01:01:33 435.175 FM
ISS 26 May 00:52:24 00:54:20 15° 128° (SE) 00:56:15 145.800 FM
MaSat-1 26 May 01:17:44 01:24:35 48° 109° (ESE) 01:30:22 437.345 MHz
AO-40 26 May 01:59:27 03:35:07 42° 227° (SW) 08:28:01 Beacon 2401.320
ISS 26 May 02:27:35 02:30:45 42° 322° (NW) 02:33:56 145.800 FM
Oscar 19 26 May 02:30:37 02:34:31 22° 95° (E) 02:38:24 437.125 CW, 437.150 USB
Uribyol 2 26 May 02:34:26 02:38:18 21° 94° (E) 02:42:07 436.500 FM
RS-15 26 May 02:59:24 03:10:06 60° 248° (WSW) 03:20:39 29.354 - 29.394 USB, Beacon 29.352 USB
MaSat-1 26 May 03:01:00 03:06:46 28° 299° (WNW) 03:11:42 437.345 MHz
Oscar 16 26 May 03:09:40 03:14:49 66° 102° (ESE) 03:19:55 437.025 USB, Beacon 2401.1428
AO-27 26 May 03:26:46 03:31:59 69° 102° (ESE) 03:37:11 436.795 MHz FM
ITAMSAT 1 26 May 03:32:31 03:37:46 77° 103° (ESE) 03:42:59 435.822 SSB
Uosat F 26 May 03:43:53 03:45:24 11° 92° (E) 03:46:55 435.120 FM
AO-Echo 26 May 03:45:22 03:49:40 32° 98° (E) 03:54:04 ?
Oscar 19 26 May 04:09:13 04:13:57 38° 289° (WNW) 04:18:39 437.125 CW, 437.150 USB
Gurwin Techsat 1B 26 May 04:11:48 04:15:43 21° 94° (E) 04:19:37 435.225 FM
Uribyol 2 26 May 04:13:01 04:17:54 41° 289° (WNW) 04:22:45 436.500 FM
Saudisat 1A 26 May 04:34:19 04:37:45 21° 110° (ESE) 04:41:13 436.775 MHz
Oscar 16 26 May 04:51:08 04:53:35 14° 297° (WNW) 04:56:01 437.025 USB, Beacon 2401.1428
AO-27 26 May 05:08:30 05:10:53 13° 297° (WNW) 05:13:16 436.795 MHz FM
ITAMSAT 1 26 May 05:14:43 05:16:34 12° 298° (WNW) 05:18:25 435.822 SSB
Uosat F 26 May 05:19:37 05:24:37 67° 286° (WNW) 05:29:36 435.120 FM
AO-Echo 26 May 05:24:33 05:28:17 23° 291° (WNW) 05:32:05 ?
TMSAT-1 26 May 05:26:32 05:31:51 76° 102° (ESE) 05:37:09 436.925 FM
Gurwin Techsat 1B 26 May 05:50:51 05:55:49 42° 289° (WNW) 06:00:47 435.225 FM
AO-7 26 May 05:57:26 06:05:19 44° 100° (E) 06:13:08 29.400 - 29.500 MHz
PCSat 26 May 06:02:31 06:05:32 15° 104° (ESE) 06:08:33 145.825 MHz
STRAND 1 26 May 06:05:51 06:09:20 19° 66° (ENE) 06:12:48 ?
Saudisat 1A 26 May 06:13:01 06:17:12 35° 306° (NW) 06:21:26 436.775 MHz
Sapphire 26 May 06:33:48 06:38:25 30° 108° (ESE) 06:43:03 437.095 MHz 1200 baud AX-25 AFSK
KITSAT 1 26 May 06:48:31 06:54:19 21° 43° (NE) 07:00:05 435.175 FM
TMSAT-1 26 May 07:09:03 07:11:06 12° 298° (WNW) 07:13:09 436.925 FM
PCSat 26 May 07:43:03 07:48:22 60° 299° (WNW) 07:53:45 145.825 MHz
STRAND 1 26 May 07:43:18 07:48:09 45° 260° (W) 07:53:02 ?
Hamsat 26 May 07:46:06 07:49:27 21° 95° (E) 07:52:47 145.90 MHz
AO-7 26 May 07:50:23 07:57:54 39° 297° (WNW) 08:05:24 29.400 - 29.500 MHz
Sapphire 26 May 08:16:54 08:21:43 33° 304° (NW) 08:26:35 437.095 MHz 1200 baud AX-25 AFSK
SO-50 26 May 08:26:18 08:31:07 82° 118° (ESE) 08:35:53 436.795 FM
KITSAT 1 26 May 08:42:38 08:50:49 89° 63° (ENE) 08:58:56 435.175 FM
ISS 26 May 08:58:37 09:01:54 53° 39° (NE) 09:05:12 145.800 FM
JAS-1B 26 May 09:10:54 09:16:41 64° 102° (ESE) 09:22:18 435.800 - 435.900 CW/SSB
SO-67 26 May 09:17:40 09:21:16 89° 268° (W) 09:24:50 435.3500 MHz FM
Hamsat 26 May 09:21:44 09:25:29 28° 289° (WNW) 09:29:14 145.90 MHz
HO-68 26 May 09:38:13 09:42:13 16° 92° (E) 09:46:11 435.675 MHz FM

Developed and maintained by Chris Peat, Heavens-Above GmbH. Please read the updated FAQ before sending e-mail. Imprint. DLR
